EGFFEGHI

Guest
Details From EGFF - Cardiff
To EGHI - Southampton
Flight Number -
Tags generated
Created
Modified
Stats Distance 80 nm / 147 km
Max Altitude 4,800 ft / 1,463 m
Waypoints 3
Social Downloads 1
Likes 0
Share VATSIM

Download

Looking for another format? Having issues loading an existing format? Contact us
Advertisement - Login to hide

Notes

Basic altitude profile: - Ascent Rate: 2500ft/min - Ascent Speed: 250kts - Cruise Altitude: 3000ft - Cruise Speed: 300kts - Descent Rate: 1500ft/min - Descent Speed: 250kts Options: - Use NATs: yes - Use PACOTS: yes - Use low airways: yes - Use high airways: yes

Route

EGFF LAMAT EGHI

ID Type Via Altitude (ft/m) Position (lat/lon) Dist (leg/tot) Name
O EGFF APT - 0 / 0 51.39656 / -3.34320 - / 0 nm Cardiff
LAMAT FIX - 4,800 / 1,463 51.30194 / -3.01750 13 / 13 nm
O EGHI APT - 0 / 0 50.95026 / -1.35681 66 / 79 nm Southampton

Altitude Profile

Advertisement - Login to hide

EGFF

Details ICAO EGFF (CWL)
Name Cardiff Int'l
Region United Kingdom
Timezone Europe/London (UTC+1.0)
Stats Elevation 220 ft / 67 m (AMSL)
Location 51.396600° -3.343200°
Runways 1
Magnetic Variation 1.452° W

METAR

EGFF 150820Z AUTO 06018KT 9999 OVC031 10/09 Q1011

Decode

TAF

TAF EGFF 150459Z 1506/1606 04012KT 9999 SCT020 PROB30 TEMPO 1506/1518 8000 -RA BKN012 BECMG 1518/1521 8000 BKN010 TEMPO 1520/1606 4000 -DZ BKN006 PROB30 TEMPO 1521/1606 1200 DZ BR BKN002

Decode

Departure Runways

ID Width Length Bearing (true/mag) Surface Threshold Overrun Markings Lighting
12 148 ft / 45 m 7,731 ft / 2,356 m 116.83° / 118.28° ASPHALT 715 ft / 218 m 0 ft / 0 m UK-PREC-APP CENTERLINE EDGE THRESHOLD CALVERT REIL-OMNI
30 148 ft / 45 m 7,731 ft / 2,356 m 296.85° / 298.30° ASPHALT 495 ft / 151 m 108 ft / 33 m UK-PREC-APP CENTERLINE EDGE THRESHOLD CALVERT REIL-OMNI

EGHI

Details ICAO EGHI (SOU)
Name Southampton
Region United Kingdom
Timezone Europe/London (UTC+1.0)
Stats Elevation 41 ft / 12 m (AMSL)
Location 50.950300° -1.356790°
Runways 1
Magnetic Variation 0.690° W

METAR

EGHI 150820Z 03008KT 360V060 6000 BKN007 11/10 Q1009

Decode

TAF

Not found

Destination Runways

ID Width Length Bearing (true/mag) Surface Threshold Overrun Markings Lighting
02 121 ft / 37 m 5,651 ft / 1,722 m 19.36° / 20.05° ASPHALT 239 ft / 73 m 66 ft / 20 m UK-PREC-APP CENTERLINE EDGE THRESHOLD MALS
20 121 ft / 37 m 5,651 ft / 1,722 m 199.36° / 200.05° ASPHALT 151 ft / 46 m 0 ft / 0 m UK-PREC-APP CENTERLINE EDGE THRESHOLD MALS

Approach Navaids

Runway Type Ident Frequency Range Bearing (true/mag) Slope Elevation
20 GS ISN 110.75 MHz 10 nm / 19 km 199.35° / 200.04 ° 3.10° 41 ft / 12 m (AMSL)
20 DME ISN 110.75 MHz 18 nm / 33 km - - 54 ft / 16 m (AMSL)
20 LOC-ILS ISN 110.75 MHz 18 nm / 33 km 199.35° / 200.04 ° - 41 ft / 12 m (AMSL)

Popular Alternatives